﻿Дата;Google;AdRiver
2014-10-29;2;0
2014-10-28;1;0
2014-10-27;1;0
2014-10-23;1;0
2014-10-18;2;0
2014-10-17;1;0
2014-06-17;2;0
2014-06-16;9;0
2014-06-14;1;0
2014-06-13;20;0
2014-06-12;26;0
2014-06-06;21;0
2014-06-05;7;0
2014-02-28;38;0
2014-02-26;25;0
2014-02-13;1;0
2014-02-12;1;0
2014-02-05;4;0
2014-02-04;78;0
2014-02-02;61;0
2014-02-01;52;0
2014-01-25;1;0
2014-01-23;1;0
2014-01-17;1;0
2014-01-15;3;0
2014-01-14;88;0
2014-01-13;69;0
2014-01-12;15;0
2014-01-11;69;0
2014-01-10;53;0
2014-01-09;60;0
2014-01-08;46;0
2013-12-05;1;0
2013-12-04;1;0
2013-12-02;1;0
2013-12-01;1;0
2013-11-29;2;0
2013-11-28;32;0
2013-11-27;32;0
2013-11-26;30;0
2013-11-25;16;0
2013-11-23;2;0
2013-11-21;56;0
2013-11-20;43;0
2013-11-19;12;0
2013-11-15;1;0
2013-11-14;46;0
2013-11-12;11;0
2013-10-29;39;0
2013-10-25;43;0
2013-10-24;80;0
2013-10-23;52;0
2013-10-22;34;1
2013-10-21;50;0
2013-10-20;2;0
2013-10-19;1;0
2013-10-18;108;0
2013-10-15;73;0
2013-10-14;49;0
2013-10-13;102;0
2013-10-11;41;0
2013-10-10;53;0
2013-10-09;25;0
2013-10-08;23;0
2013-10-06;1;0
2013-10-03;1;0
2013-10-02;1;0
2013-10-01;19;0
2013-09-28;123;0
2013-09-27;79;0
2013-09-23;4;0
2013-09-20;16;0
2013-09-19;61;0
2013-09-18;67;0
2013-09-17;28;0
2013-09-16;14;0
2013-09-15;14;0
2013-09-14;7;0
2013-09-13;14;0
2013-09-12;17;0
2013-09-11;17;0
2013-09-10;17;0
2013-09-09;11;0
2013-09-08;5;0
2013-09-07;7;0
2013-09-06;14;0
2013-09-05;17;0
2013-09-04;19;0
2013-09-03;16;0
2013-09-02;13;0
2013-09-01;5;0
2013-08-31;9;0
2013-08-29;6;0
2013-08-28;14;0
2013-08-27;10;0
2013-08-26;12;0
2013-08-25;7;0
2013-08-24;11;0
2013-08-23;7;0
2013-08-22;8;0
2013-08-21;10;0
2013-08-20;8;0
2013-08-19;7;0
2013-08-18;6;0
2013-08-17;7;0
2013-08-16;7;0
2013-08-15;5;0
2013-08-14;6;0
2013-08-13;6;0
2013-08-12;6;0
2013-08-11;7;0
2013-08-09;9;0
2013-08-08;9;0
2013-08-06;6;0
2013-08-02;7;0
2013-08-01;5;0
2013-07-30;5;0
2013-07-29;6;0
2013-07-25;1;0
2013-07-24;3;0
2013-07-23;1;0
2013-07-20;1;0
2013-07-17;3;0
2013-07-16;3;0
2013-07-15;4;0
2013-07-14;6;0
2013-07-13;4;0
2013-07-12;5;0
2013-07-11;5;0
2013-07-09;2;0
2013-07-08;2;0
2013-07-06;5;0
2013-07-05;6;0
2013-07-04;3;0
2013-07-02;1;0
2013-06-02;5;0
2013-06-01;2;0
2013-05-31;2;0
2013-05-30;2;0
2013-04-15;1;0
2013-04-12;1;0
2013-04-06;1;0
2013-02-26;8;0
2013-02-25;31;0
2013-02-24;36;0
2013-02-23;21;0
2013-02-22;21;0
2013-02-21;26;0
2013-02-20;3;0
2013-02-15;1;0
2013-02-13;24;0
2013-02-12;46;0
2013-02-11;60;0
2013-02-10;54;0
2013-02-09;1;0
2013-02-05;1;0
2013-02-02;10;0
2013-02-01;2;0
2013-01-28;56;0
2013-01-27;79;0
2013-01-26;56;0
2013-01-25;39;0
2013-01-23;1;0
2013-01-22;16;0
2013-01-21;61;0
2013-01-20;52;0
2013-01-19;58;0
2013-01-18;54;0
2013-01-17;68;0
2013-01-16;76;0
2013-01-15;58;0
2013-01-14;57;0
2013-01-13;30;0
2013-01-12;2;0
2012-10-18;33;0
2012-10-17;42;0
2012-10-16;12;0
2012-10-15;24;0
2012-10-12;17;0
2012-10-11;34;0
2012-10-10;36;0
2012-10-09;35;0
2012-10-08;36;0
2012-10-05;29;0
2012-10-04;42;0
2012-10-03;33;0
2012-10-02;37;0
2012-10-01;26;0
2012-09-30;6;0
2012-09-29;10;0
2012-09-27;37;0
2012-09-26;61;0
2012-09-25;56;0
2012-09-24;24;0
2012-09-21;55;0
2012-09-20;36;0
2012-09-19;54;0
2012-09-18;58;0
2012-09-17;40;0
2012-09-16;1;0
2012-09-15;10;0
2012-09-14;41;0
2012-09-13;42;0
2012-09-12;56;0
2012-09-11;20;0
2012-09-10;62;0
2012-09-09;49;0
2012-09-08;42;0
2012-09-07;37;0
2012-09-06;62;0
2012-09-05;75;0
2012-09-04;69;0
2012-09-03;10;0
2012-09-02;1;0
2012-09-01;2;0
2012-08-31;26;0
2012-08-30;60;0
2012-08-29;53;0
2012-08-28;35;0
2012-08-27;26;0
2012-08-24;1;0
2012-08-22;27;0
2012-08-21;28;0
2012-08-20;32;0
2012-08-18;1;0
2012-08-17;31;0
2012-08-16;35;0
2012-08-15;13;0
2012-08-14;8;0
2012-08-04;2;0
2012-08-03;28;0
2012-08-02;27;0
2012-08-01;32;0
2012-07-31;27;0
2012-07-30;27;0
2012-07-27;9;0
2012-07-26;25;0
2012-07-25;31;0
2012-07-24;29;0
2012-07-23;30;0
2012-07-20;22;0
2012-07-19;30;0
2012-07-18;36;0
2012-07-17;18;0
2012-07-16;38;0
2012-07-15;6;0
2012-07-14;8;0
2012-07-13;7;0
2012-07-12;9;0
2012-07-11;1;0
2012-07-10;7;0
2012-07-09;8;0
2012-07-08;6;0
2012-07-07;2;0
2012-06-27;1;0
2012-06-26;7;0
2012-06-25;3;0
2012-06-22;11;0
2012-06-21;3;0
2012-06-20;3;0
2012-06-19;9;0
2012-06-18;2;0
2012-06-15;2;0
2012-06-13;2;0
2012-06-12;3;0
2012-06-11;1;0
2012-06-10;6;0
2012-06-09;1;0
2012-06-08;1;0
2012-06-07;8;0
2012-06-06;6;0
2012-06-05;3;0
2012-06-04;6;0
2012-06-03;2;0
2012-06-02;2;0
2012-06-01;4;0
2012-05-31;1;0
2012-05-30;1;0
2012-05-29;5;0
2012-05-28;3;0
2012-05-27;4;0
2012-05-26;2;0
2012-05-24;3;0
2012-05-23;1;0
2012-05-22;1;0
2012-05-21;4;0
2012-05-20;9;0
2012-05-19;2;0
2012-05-18;5;0
2012-05-17;6;0
2012-05-16;4;0
2012-05-11;3;0
2012-05-10;28;0
2012-05-08;3;0
2012-05-07;5;0
2012-05-05;1;0
2012-05-04;1;0
2012-05-01;1;0
2012-04-25;3;0
2012-04-24;2;0
2012-04-23;3;0
2012-04-21;5;0
2012-04-20;3;0
2012-04-19;3;0
2012-04-18;4;0
2012-04-17;8;0
2012-04-13;6;0
2012-04-12;8;0
2012-04-11;2;0
2012-04-10;4;0
2012-04-09;4;0
2012-04-06;6;0
2012-04-05;21;0
2012-04-04;2;0
2012-04-03;5;0
2012-03-30;4;0
2012-03-29;4;0
2012-03-28;3;0
2012-03-27;9;0
2012-03-26;9;0
2012-03-25;1;0
2012-03-24;5;0
2012-03-23;5;0
2012-03-22;5;0
2012-03-21;3;0
2012-03-20;2;0
2012-03-19;3;0
2012-03-18;1;0
2012-03-17;4;0
2012-03-16;2;0
2012-03-14;1;0
2012-03-13;5;0
2012-03-12;10;0
2012-03-09;1;0
2012-03-08;3;0
2012-03-07;1;0
2012-03-06;1;0
2012-03-05;3;0
2012-03-04;1;0
2012-03-03;3;0
2012-03-02;4;0
2012-02-27;1;0
2012-02-26;2;0
2012-02-06;34;0
2012-02-05;36;0
2012-02-04;30;0
2012-02-03;36;0
2012-02-02;34;0
2012-02-01;37;1
2012-01-31;50;0
2012-01-30;46;0
2012-01-29;33;0
2012-01-28;31;0
2012-01-27;14;0
2011-12-18;23;0
2011-12-17;27;0
2011-12-16;24;0
2011-12-15;21;0
2011-12-14;29;0
2011-12-13;2;0
2011-10-10;8;0
2011-10-09;6;0
2011-10-08;11;0
2011-10-07;26;0
2011-10-06;11;0
2011-09-28;2;0
2011-09-27;15;0
2011-09-26;14;0
2011-09-25;4;0
2011-09-24;2;0
2011-09-23;9;0
2011-09-22;29;0
2011-09-21;7;0
2011-09-18;4;0
2011-09-17;4;0
2011-09-16;4;0
2011-09-15;2;0
2011-09-14;1;0
2011-09-13;1;0
2011-09-12;7;0
2011-09-11;15;0
2011-09-10;13;0
2011-09-09;10;0
2011-08-20;6;0
2011-08-19;12;0
2011-08-18;18;0
2011-08-17;13;0
2011-08-16;16;0
2011-08-15;10;0
2011-08-14;14;0
2011-08-13;15;0
2011-08-12;13;0
2011-08-11;12;0
2011-08-10;11;0
2011-08-09;2;0
2011-08-08;10;0
2011-08-07;18;0
2011-08-06;10;0
2011-08-05;8;0
2011-08-04;19;0
2011-08-03;12;0
2011-08-02;11;0
2011-08-01;13;0
2011-07-31;9;0
2011-07-30;8;0
2011-07-29;11;0
2011-07-28;14;0
2011-07-27;16;0
2011-07-26;5;0
2011-07-25;6;0
2011-07-24;5;0
2011-07-23;7;0
2011-07-22;7;0
2011-07-21;13;0
2011-07-20;6;0
2011-07-19;6;0
2011-07-18;8;0
2011-07-17;4;0
2011-07-16;9;0
2011-07-15;6;0
2011-07-14;4;0
2011-07-13;14;0
2011-07-12;11;0
2011-07-11;7;0
2011-07-10;8;0
2011-07-09;7;0
2011-07-08;4;0
2011-07-07;13;0
2011-07-06;16;0
2011-07-05;12;0
2011-07-04;10;0
2011-06-30;20;0
2011-06-29;14;0
2011-06-28;12;0
2011-06-27;8;0
2011-06-26;11;0
2011-06-25;13;0
2011-06-24;10;0
2011-06-23;8;0
2011-06-22;9;0
2011-06-21;14;0
2011-06-20;4;0
2011-06-19;3;0
2011-06-18;7;0
2011-06-17;9;0
2011-06-16;10;0
2011-06-15;8;0
2011-06-14;8;0
2011-06-13;6;0
2011-06-12;5;0
2011-06-11;7;0
2011-06-10;4;0
2011-06-09;6;0
2011-06-08;10;0
2011-06-07;5;0
2011-06-06;11;0
2011-06-05;10;0
2011-06-04;4;0
2011-06-03;4;0
2011-06-02;6;0
2011-06-01;8;0
2011-05-31;12;0
2011-05-30;7;0
2011-05-29;3;0
2011-05-28;8;0
2011-05-27;8;0
2011-05-26;7;0
2011-05-25;10;0
2011-05-24;1;0
2011-05-21;1;0
2011-05-20;1;0
2011-05-17;1;0
2011-05-16;1;0
2011-05-12;1;0
2011-05-11;3;0
2011-05-10;7;0
2011-05-09;6;0
2011-05-08;7;0
2011-05-07;1;0
2011-05-05;4;0
2011-05-04;8;0
2011-05-03;14;0
2011-05-01;1;0
2011-04-29;1;0
2011-04-27;4;0
2011-04-26;10;0
2011-04-25;4;0
2011-04-24;4;0
2011-04-23;1;0
2011-04-22;8;0
2011-04-21;9;0
2011-04-20;16;0
2011-04-19;10;0
2011-04-18;12;0
2011-04-17;4;0
2011-04-16;8;0
2011-04-15;14;0
2011-04-14;13;0
2011-04-13;22;0
2011-04-12;30;0
2011-04-11;23;0
2011-04-10;18;0
2011-04-09;15;0
2011-04-08;27;0
2011-04-07;25;0
2011-04-06;12;0
2011-04-05;12;0
2011-04-04;10;0
2011-04-03;13;0
2011-04-02;9;0
2011-04-01;12;0
2011-03-31;8;0
2011-03-30;7;0
2011-03-27;27;0
2011-03-26;17;0
2011-03-25;24;0
2011-03-24;24;0
2011-03-23;20;0
2011-03-22;12;0
2011-03-21;16;0
2011-03-20;11;0
2011-03-19;11;0
2011-03-18;13;0
2011-03-17;8;0
2011-03-16;11;0
2011-03-15;9;0
2011-03-14;11;0
2011-03-13;8;0
2011-03-12;12;0
2011-03-11;11;0
2011-03-10;12;0
2011-03-09;13;0
2011-03-08;3;0
2011-03-07;2;0
2011-03-06;1;0
2011-03-05;1;0
2011-03-04;6;0
2011-03-03;14;0
2011-03-02;14;0
2011-03-01;13;0
2011-02-28;14;0
2011-02-27;21;0
2011-02-26;22;0
2011-02-25;26;0
2011-02-24;20;0
2011-02-23;15;0
2011-02-22;26;0
2011-02-21;5;0
2011-02-17;1;0
2011-02-16;18;0
2011-02-15;24;0
2011-02-14;14;0
2011-02-13;12;0
2011-02-12;10;0
2011-02-11;9;0
2011-02-10;12;0
2011-02-09;10;0
2011-02-08;8;0
2011-02-07;8;0
2011-02-06;13;0
2011-02-05;6;0
2011-02-04;7;0
2011-02-03;11;0
2011-02-02;6;0
2011-02-01;1;0
